Weather in Rymarevo

Russia / Tambov Oblast     51°55′02″N   41°19′02″E
temp.,
°C
wind,
m/s
gust,
m/s
humid.,
%
clouds,
%
prec.,
mm/h
press.,
hPa
HPBL,
m
28 february, sun
sun2800:00−8nnw489398 0.0 1012430
03:00−9nw369480 0.0 1014253
06:00−10nw37920 0.0 1015266
09:00−8nw369128 0.0 1016296
12:00−5nw358895 0.1 1016523
15:00−5nw468798 0.1 1016541
18:00−6nnw2495100 0.1 1017143
21:00−7n259493 0.1 1019204
1 march, mon
mon100:00−9n239583 0.0 102186
03:00−9nne229568 0.0 102243
06:00−10nnw22950 0.0 102342
09:00−8nw129329 0.0 1026123
12:00−5nw348589 0.0 1026526
15:00−4wnw338395 0.1 1026557
18:00−5w349196 0.0 102567
21:00−3wsw499095 0.0 1024407
2 march, tue
tue200:00−4wsw61389100 0.0 1022365
03:00−3wsw71393100 0.0 1018494
06:00−1wsw81595100 0.4 1015624
09:000w91597100 1.6 1011767
12:00+1w81498100 0.4 1009728
15:00+1wnw6119399 0.9 1009771
18:000nw5119299 0.3 1009708
21:00−1wnw6139389 0.3 1011467
3 march, wed
wed300:00−2nw6129297 0.3 1011539
03:00−3nw6129497 0.3 1011526
06:00−3nw6129393 0.1 1012623
09:00−3nw7119095 0.3 1014833
12:00−3nnw81184100 0.1 1015904
15:00−3nw71184100 0.2 10161003
18:00−3nw61288100 0.1 1017675
21:00−3nw51291100 0.2 1020729
4 march, thu
thu400:00−5nw499549 0.0 1020223
03:00−6wnw379653 0.0 1020151
06:00−6w369457 0.0 1020121
09:00−4wsw5109128 0.0 1020355
12:00−1wsw711834 0.0 1018640
15:00+1wsw612807 0.0 1016705
18:00−1sw6148235 0.0 1013376
21:000sw7168424 0.0 1012523